NOAA 16 DEB, 41210

Orbit data source: Space-Track

NOAA 16 DEB, 41210 is space debris in SSO originally from a launch on Thu, 21 Sep 2000 UTC launched from the Air Force Western Test Range (AFWTR). Debris objects in space refer to the collection of defunct objects orbiting the Earth. Examples of debris include non-operational satellites, rocket bodies, and fragments generated from explosions, collisions, or faulty payload assembly.

Loading next visibility...
Identifier
41210, 2000-055DP
Orbit
SSO
Country
Flag of USUS
Related business
Manufacturer
Unknown
Mission
Spacecraft
Bus & Motor
Unknown
Mass
Unknown
Launch date (UTC)
2000-09-21 (25 years ago)
Launch vehicle
Unknown
Launch site
Air Force Western Test Range (AFWTR)
Object type
Payload
Rocket body
Debris
Shape & HBR
Unknown shape, 0.1 m
Radar Cross Section
Small (<0.1 m²)

Expand to show TLE details & history
Last TLE update: 16 hours ago

TLE from 16 hours ago
0 NOAA 16 DEB
1 41210U 00055DP  25352.09902656  .00002583  00000-0  12131-2 0  9990
2 41210  98.6911  43.2149 0022137 285.1978  74.6751 14.20808578517053
Epoch: 2025-12-18T02:22Z
TLE epoch observation values (Epoch: 2025-12-18T02:22:35.894Z)
Latitude
-0.00005°
Longitude
-79.39405°
Altitude
821.355 km
Speed
7.445 km/s
True Right ascension
02h 52m 51s
True Declination
0° 00' 00"
Sunlit
Object was in full shadow at epoch
Visualization orbit readout
Latitude
Unknown
Longitude
Unknown
Altitude
Unknown
Speed
Unknown
Apparent Right ascension
Unknown
Apparent Declination
Unknown
Sunlit
N/A
Visualization observer readout
Local Sidereal Time
17:15:39
Azimuth
Unknown
Elevation
Unknown
Doppler factor
Unknown
Orbital elements
Apogee altitude
835.71 km
Perigee altitude
803.842 km
Semi-major axis
7,197.913 km
Eccentricity
0.00221
Inclination
98.6911°
RAAN
43.2149°
Arg. of periapsis
285.1978°
True anomaly
74.91993°
Mean anomaly
74.6751°
Eccentric anomaly
74.7975°
Mean motion
3.55413 °/min
Orbital period
101.29 mins
BSTAR
0.0012131
Loading maneuver chart data...
Computing Atmospheric mass density...
Loading historical data...
Loading historical data...
Loading historical data...
Loading historical data...
Loading historical data...
Loading historical data...
Loading historical data...

Documentation

Showing up to 5 results
|